sat.trackr.live / text

‹ back to catalog

STARLINK-11604 [DTC]

NORAD 63133 · 2025-043B

PAYLOAD ACTIVE UNKNOWN

§ Identity

Operator
Country
US
Launch date
2025-03-03
Launch site
AFETR
Launch vehicle
Mass (kg)
RCS (m²)

Purposes: comms

External: N2YO · Heavens-Above · Gunter

§ Orbital elements

Epoch: 2026-09-20T17:42:32.405184Z

Period
91.67 min
Inclination
43.0008°
Eccentricity
0.0002260
Mean motion
15.70866706 rev/d
Perigee alt
354.9 km
Apogee alt
357.9 km
Semi-major
6,734.6 km
B*
1.2667e-3
RAAN
155.4342°
Arg perigee
309.9103°
Mean anomaly
50.1566°
Rev number
9,002

§ Raw data

STARLINK-11604 [DTC]1 63133U 25043B   26263.73787506  .00165550  00000+0  12667-2 0  99972 63133  43.0008 155.4342 0002260 309.9103  50.1566 15.70866706 90022

JSON: /api/v1/satellites/63133 · /tle

For live sub-satellite position, see the globe view (requires WebGL).

§ Visibility from observer

Set your observer location to see the next 7 days of passes ≥ 10°. The values pass through the URL so the page stays shareable.

No JS? Fill the form by hand. The geolocation button needs JavaScript.